Showing default

COSMOS 894, 9846

Orbit data source: Space-Track

COSMOS 894, 9846 is a payload satellite owned by VMF (CIS) in LEO that was launched on Mon, 21 Feb 1977 UTC via a KOSMOS 11K65M launch vehicle from the Plesetsk Missile And Space Complex (PKMTR). Payload-class satellites include a variety of spacecraft equipped with specific instruments for various scientific and technological missions. These include communications satellites like Starlink; space stations such as the ISS; scientific satellites like the Hubble; Earth observation satellites from companies like Planet Labs, Umbra, and HawkEye 360; GPS; miniature CubeSats for education and research; and military/defense satellites.

Loading next visibility...
Identifier
9846, 1977-013A
Orbit
LEO
Last TLE update
8 hours ago
Origin
Manufacturer
Omsk Av. Zav.
Mission
Defense Navigation
Bus & Motor
KAUR-1 11F627, Unknown motor
Mass
800 kg wet, 800 kg dry
Launch date (UTC)
1977-02-21 (48 years ago)
Launch vehicle
KOSMOS 11K65M
Launch site
Plesetsk Missile And Space Complex (PKMTR)
Object type
Payload
Rocket body
Debris
Shape & HBR
Cyl, 5 m
Radar Cross Section
9.978 m², Large (>1 m²)

Expand to show TLE details & history

TLE from 8 hours ago
0 COSMOS 894
1  9846U 77013A   25184.22632921  .00000073  00000-0  60547-4 0  9998
2  9846  82.9441 355.2852 0031251 100.6968  72.1630 13.74168509424507
Epoch: 2025-07-03T05:25Z
TLE epoch observation values (Epoch: 2025-07-03T05:25:54.843Z)
Latitude
6.67291°
Longitude
171.48516°
Altitude
979.94 km
Speed
7.366 km/s
True Right ascension
11h 37m 50s
True Declination
6° 38' 04"
Sunlit
Object was in daylight at epoch
Visualization orbit readout
Latitude
68.91945°
Longitude
153.42267°
Altitude
973.924 km
Speed
7.382 km/s
Apparent Right ascension
12h 32m 33s
Apparent Declination
21° 42' 18"
Sunlit
Object is in daylight
Visualization observer readout
Local Sidereal Time
01:38:43
Azimuth
17.189° NNE
Elevation
-26.475°
Doppler factor
1
Orbital elements
Apogee altitude
1,004.794 km
Perigee altitude
958.793 km
Semi-major axis
7,359.93 km
Eccentricity
0.00313
Inclination
82.9441°
RAAN
355.2852°
Arg. of periapsis
100.6968°
True anomaly
Unknown
Mean anomaly
72.163°
Eccentric anomaly
Unknown
Mean motion
3.43742 °/min
Orbital period
104.73 mins
BSTAR
0.000060547
Loading maneuver chart data...
Loading SW <> Apogee altitude chart data...
Loading historical data...
Loading historical data...
Loading historical data...
Loading historical data...
Loading historical data...
Loading historical data...
Loading historical data...
Other satellites on launch #13 in the year 1977 (1977-02-21 UTC)

COSMOS 894 Visibility forecast

Observer location: undefined°, undefined°

Span
Click to sort rows by Start time (UTC) header in descending order
Start Az.
Max El. time (UTC)
Max El. Az.
Max El.
End time (UTC)
End Az.
11 mins2025-07-03 22:38:50.122Z8.406° NNE2025-07-03 22:43:50.122Z65.763° ENE33.097°2025-07-03 22:49:50.122Z145.644° SSE
8 mins2025-07-04 00:25:50.122Z321.316° NNW2025-07-04 00:29:50.122Z270.243° WNW24.833°2025-07-04 00:33:50.122Z223.462° SW
11 mins2025-07-04 12:09:50.122Z188.675° SSW2025-07-04 12:14:50.122Z305.172° NW44.795°2025-07-04 12:20:50.122Z5.756° NNE
|